Location: Home
(42.5358°N, 72.7383°W)
Time: 17:59:47
(UTC-05:00)

Tiros 1 - Pass Details

Date: 08 December 2021
Orbit: 629 x 664 km, 48.4° (Epoch: 18 January)

Event Time Altitude Azimuth Distance (km) Brightness Sun altitude
Rises 15:15:53 0° 199° (SSW) 2,899 11.7 8.3°
Reaches altitude 10° 15:18:39 10° 183° (S) 1,997 10.5 8.0°
Maximum altitude 15:22:03 21° 135° (SE) 1,431 9.0 7.5°
Drops below altitude 10° 15:25:29 10° 87° (E) 2,013 9.2 7.0°
Sets 15:28:16 0° 72° (ENE) 2,930 9.9 6.6°
